{"data":{"norad_id":58909,"epoch":"2026-05-25T04:24:00.194112Z","epoch_age_seconds":62665,"freshness":"FRESH","line1":"1 58909U 24023E   26145.18333558  .00001458  00000+0  20423-3 0  9997","line2":"2 58909  50.0045 100.8607 0011424 335.1410  24.8977 14.83165138125508","mean_motion":14.83165138,"eccentricity":0.0011424,"inclination_deg":50.0045,"raan_deg":100.8607,"arg_perigee_deg":335.141,"mean_anomaly_deg":24.8977,"bstar":0.00020423,"rev_number":12550,"period_min":97.089660692928,"perigee_km":611.35717340984,"apogee_km":627.34503422945,"semimajor_km":6997.4881038196,"source":"CELESTRAK","updated_at":"2026-05-25T13:38:01.048786Z"}}